Time,TemperatureF,DewpointF,PressureIn,WindDirection,WindDirectionDegrees,WindSpeedMPH,WindSpeedGustMPH,Humidity,HourlyPrecipIn,Conditions,Clouds,dailyrainin,SoftwareType,DateUTC
2013-02-22 00:01:00,26.0,25.0,29.93,East,96,17.0,23.0,95,0.00,,,0.00,,2013-02-22 06:01:00,
2013-02-22 00:11:00,26.0,25.0,29.93,East,96,17.0,23.0,95,0.00,,,0.00,,2013-02-22 06:11:00,
2013-02-22 00:22:00,27.0,26.0,29.92,East,87,16.0,21.0,95,0.00,,,0.00,,2013-02-22 06:22:00,
2013-02-22 00:31:00,27.0,26.0,29.91,East,90,16.0,23.0,95,0.00,,,0.00,,2013-02-22 06:31:00,
2013-02-22 00:42:00,27.0,26.0,29.91,East,90,16.0,23.0,95,0.00,,,0.00,,2013-02-22 06:42:00,
2013-02-22 00:51:00,27.0,26.0,29.91,East,79,14.0,24.0,95,0.00,,,0.00,,2013-02-22 06:51:00,
2013-02-22 01:01:00,27.0,26.0,29.91,East,86,15.0,23.0,95,0.00,,,0.00,,2013-02-22 07:01:00,
2013-02-22 01:11:00,27.0,26.0,29.91,East,86,15.0,23.0,95,0.00,,,0.00,,2013-02-22 07:11:00,
2013-02-22 01:21:00,27.0,26.0,29.91,East,101,12.0,19.0,95,0.00,,,0.00,,2013-02-22 07:21:00,
2013-02-22 01:31:00,27.0,26.0,29.90,East,95,13.0,19.0,95,0.00,,,0.00,,2013-02-22 07:31:00,
2013-02-22 01:42:00,27.0,26.0,29.90,East,95,13.0,19.0,95,0.00,,,0.00,,2013-02-22 07:42:00,
2013-02-22 01:51:00,27.0,26.0,29.90,East,98,14.0,18.0,95,0.00,,,0.00,,2013-02-22 07:51:00,
2013-02-22 02:01:00,27.0,26.0,29.89,ESE,112,14.0,19.0,95,0.00,,,0.00,,2013-02-22 08:01:00,
2013-02-22 02:11:00,27.0,26.0,29.89,ESE,112,14.0,19.0,95,0.00,,,0.00,,2013-02-22 08:11:00,
2013-02-22 02:21:00,27.0,26.0,29.89,ESE,112,12.0,17.0,96,0.00,,,0.00,,2013-02-22 08:21:00,
2013-02-22 02:31:00,27.0,26.0,29.88,East,96,12.0,16.0,96,0.00,,,0.00,,2013-02-22 08:31:00,
2013-02-22 02:41:00,27.0,26.0,29.88,East,96,12.0,16.0,96,0.00,,,0.00,,2013-02-22 08:41:00,
2013-02-22 02:52:00,27.0,26.0,29.87,ESE,104,13.0,16.0,96,0.00,,,0.00,,2013-02-22 08:52:00,
2013-02-22 03:03:00,27.0,26.0,29.87,ESE,109,12.0,17.0,96,0.00,,,0.00,,2013-02-22 09:03:00,
2013-02-22 03:11:00,27.0,26.0,29.86,ESE,105,12.0,17.0,96,0.00,,,0.00,,2013-02-22 09:11:00,
2013-02-22 03:21:00,27.0,26.0,29.86,ESE,105,12.0,17.0,96,0.00,,,0.00,,2013-02-22 09:21:00,
2013-02-22 03:32:00,27.0,26.0,29.85,East,101,10.0,17.0,96,0.00,,,0.00,,2013-02-22 09:32:00,
2013-02-22 03:42:00,27.0,26.0,29.85,East,101,10.0,17.0,96,0.00,,,0.00,,2013-02-22 09:42:00,
2013-02-22 03:51:00,27.0,26.0,29.85,East,100,12.0,17.0,96,0.00,,,0.00,,2013-02-22 09:51:00,
2013-02-22 04:01:00,27.0,26.0,29.84,East,96,11.0,15.0,96,0.00,,,0.00,,2013-02-22 10:01:00,
2013-02-22 04:11:00,27.0,26.0,29.84,East,96,11.0,15.0,96,0.00,,,0.00,,2013-02-22 10:11:00,
2013-02-22 04:21:00,27.0,26.0,29.84,East,89,11.0,17.0,96,0.00,,,0.00,,2013-02-22 10:21:00,
2013-02-22 04:32:00,27.0,26.0,29.83,East,81,10.0,15.0,96,0.00,,,0.00,,2013-02-22 10:32:00,
2013-02-22 04:42:00,27.0,26.0,29.83,East,81,10.0,15.0,96,0.00,,,0.00,,2013-02-22 10:42:00,
2013-02-22 04:51:00,27.0,26.0,29.83,East,90,11.0,15.0,95,0.00,,,0.00,,2013-02-22 10:51:00,
2013-02-22 05:01:00,27.0,26.0,29.83,East,92,11.0,16.0,95,0.00,,,0.00,,2013-02-22 11:01:00,
2013-02-22 05:11:00,27.0,26.0,29.83,East,92,11.0,16.0,95,0.00,,,0.00,,2013-02-22 11:11:00,
2013-02-22 05:21:00,27.0,26.0,29.83,East,92,11.0,16.0,95,0.00,,,0.00,,2013-02-22 11:21:00,
2013-02-22 05:32:00,27.0,26.0,29.83,East,94,12.0,16.0,95,0.00,,,0.00,,2013-02-22 11:32:00,
2013-02-22 05:42:00,27.0,26.0,29.83,East,94,12.0,16.0,95,0.00,,,0.00,,2013-02-22 11:42:00,
2013-02-22 05:52:00,27.0,26.0,29.82,East,88,10.0,16.0,95,0.00,,,0.00,,2013-02-22 11:52:00,
2013-02-22 06:02:00,27.0,26.0,29.82,East,91,11.0,15.0,95,0.00,,,0.00,,2013-02-22 12:02:00,
2013-02-22 06:11:00,27.0,26.0,29.82,East,91,11.0,15.0,95,0.00,,,0.00,,2013-02-22 12:11:00,
2013-02-22 06:22:00,27.0,26.0,29.82,East,101,9.0,15.0,95,0.00,,,0.00,,2013-02-22 12:22:00,
2013-02-22 06:32:00,27.0,26.0,29.81,East,89,11.0,15.0,95,0.00,,,0.00,,2013-02-22 12:32:00,
2013-02-22 06:42:00,27.0,26.0,29.81,East,89,11.0,15.0,95,0.00,,,0.00,,2013-02-22 12:42:00,
2013-02-22 06:52:00,27.0,26.0,29.82,ESE,107,8.0,14.0,95,0.00,,,0.00,,2013-02-22 12:52:00,
2013-02-22 07:02:00,27.0,26.0,29.81,East,97,9.0,13.0,95,0.00,,,0.00,,2013-02-22 13:02:00,
2013-02-22 07:11:00,27.0,26.0,29.81,East,97,9.0,13.0,95,0.00,,,0.00,,2013-02-22 13:11:00,
2013-02-22 07:22:00,27.0,26.0,29.80,ESE,102,9.0,14.0,96,0.00,,,0.00,,2013-02-22 13:22:00,
2013-02-22 07:32:00,28.0,27.0,29.81,ESE,108,9.0,12.0,96,0.00,,,0.00,,2013-02-22 13:32:00,
2013-02-22 07:42:00,28.0,27.0,29.81,ESE,108,9.0,12.0,96,0.00,,,0.00,,2013-02-22 13:42:00,
2013-02-22 07:52:00,28.0,27.0,29.81,ESE,107,9.0,14.0,96,0.00,,,0.00,,2013-02-22 13:52:00,
2013-02-22 08:01:00,28.0,27.0,29.81,SE,125,9.0,11.0,96,0.00,,,0.00,,2013-02-22 14:01:00,
2013-02-22 08:11:00,29.0,28.0,29.81,SE,126,7.0,11.0,96,0.00,,,0.00,,2013-02-22 14:11:00,
2013-02-22 08:21:00,29.0,28.0,29.81,SE,126,7.0,11.0,96,0.00,,,0.00,,2013-02-22 14:21:00,
2013-02-22 08:32:00,29.0,28.0,29.81,ESE,122,7.0,11.0,96,0.00,,,0.00,,2013-02-22 14:32:00,
2013-02-22 08:42:00,29.0,28.0,29.81,ESE,122,7.0,11.0,96,0.00,,,0.00,,2013-02-22 14:42:00,
2013-02-22 08:52:00,30.0,29.0,29.82,SE,140,6.0,8.0,96,0.00,,,0.00,,2013-02-22 14:52:00,
2013-02-22 09:01:00,30.0,29.0,29.82,SE,141,6.0,8.0,97,0.00,,,0.00,,2013-02-22 15:01:00,
2013-02-22 09:11:00,30.0,29.0,29.82,SE,141,6.0,8.0,97,0.00,,,0.00,,2013-02-22 15:11:00,
2013-02-22 09:21:00,31.0,30.0,29.82,SSE,163,5.0,9.0,97,0.00,,,0.00,,2013-02-22 15:21:00,
2013-02-22 09:32:00,32.0,31.0,29.82,SSE,163,6.0,10.0,97,0.00,,,0.00,,2013-02-22 15:32:00,
2013-02-22 09:41:00,32.0,31.0,29.82,SSE,163,6.0,10.0,97,0.00,,,0.00,,2013-02-22 15:41:00,
2013-02-22 09:52:00,32.0,31.0,29.82,South,176,5.0,9.0,97,0.00,,,0.00,,2013-02-22 15:52:00,
2013-02-22 10:01:00,33.0,32.0,29.82,South,189,5.0,9.0,97,0.00,,,0.00,,2013-02-22 16:01:00,
2013-02-22 10:12:00,33.0,32.0,29.82,South,189,5.0,9.0,97,0.00,,,0.00,,2013-02-22 16:12:00,
2013-02-22 10:21:00,33.0,32.0,29.82,SSW,209,6.0,9.0,97,0.00,,,0.00,,2013-02-22 16:21:00,
2013-02-22 10:32:00,33.0,32.0,29.83,SW,222,5.0,10.0,98,0.00,,,0.00,,2013-02-22 16:32:00,
2013-02-22 10:42:00,33.0,32.0,29.83,SW,222,5.0,10.0,98,0.00,,,0.00,,2013-02-22 16:42:00,
2013-02-22 10:52:00,33.0,32.0,29.83,WSW,244,7.0,10.0,98,0.01,,,0.01,,2013-02-22 16:52:00,
2013-02-22 11:01:00,33.0,32.0,29.83,WSW,254,7.0,10.0,98,0.01,,,0.01,,2013-02-22 17:01:00,
2013-02-22 11:11:00,33.0,32.0,29.83,WSW,254,7.0,10.0,98,0.01,,,0.01,,2013-02-22 17:11:00,
2013-02-22 11:21:00,34.0,34.0,29.84,WSW,240,6.0,12.0,98,0.01,,,0.01,,2013-02-22 17:21:00,
2013-02-22 11:32:00,34.0,33.0,29.84,WSW,250,9.0,15.0,97,0.00,,,0.01,,2013-02-22 17:32:00,
2013-02-22 11:42:00,34.0,33.0,29.84,WSW,250,9.0,15.0,97,0.00,,,0.01,,2013-02-22 17:42:00,
2013-02-22 11:52:00,34.0,33.0,29.84,WSW,250,9.0,15.0,97,0.00,,,0.01,,2013-02-22 17:52:00,
2013-02-22 12:01:00,34.0,33.0,29.84,SW,232,7.0,12.0,97,0.00,,,0.01,,2013-02-22 18:01:00,
2013-02-22 12:12:00,34.0,33.0,29.84,SW,232,7.0,12.0,97,0.00,,,0.01,,2013-02-22 18:12:00,
2013-02-22 12:22:00,34.0,33.0,29.83,WSW,251,6.0,11.0,97,0.00,,,0.01,,2013-02-22 18:22:00,
2013-02-22 12:32:00,34.0,33.0,29.83,SW,225,7.0,13.0,96,0.00,,,0.01,,2013-02-22 18:32:00,
2013-02-22 12:42:00,34.0,33.0,29.83,SW,225,7.0,13.0,96,0.00,,,0.01,,2013-02-22 18:42:00,
2013-02-22 12:51:00,34.0,33.0,29.83,SW,229,8.0,14.0,96,0.00,,,0.01,,2013-02-22 18:51:00,
2013-02-22 13:01:00,34.0,33.0,29.83,SW,217,8.0,15.0,96,0.00,,,0.01,,2013-02-22 19:01:00,
2013-02-22 13:11:00,34.0,33.0,29.83,SW,227,8.0,15.0,96,0.00,,,0.01,,2013-02-22 19:11:00,
2013-02-22 13:21:00,34.0,33.0,29.83,SW,227,8.0,15.0,96,0.00,,,0.01,,2013-02-22 19:21:00,
2013-02-22 13:31:00,34.0,33.0,29.83,WSW,242,8.0,15.0,95,0.00,,,0.01,,2013-02-22 19:31:00,
2013-02-22 13:41:00,34.0,33.0,29.83,WSW,242,8.0,15.0,95,0.00,,,0.01,,2013-02-22 19:41:00,
2013-02-22 13:52:00,35.0,33.0,29.83,WSW,242,9.0,14.0,92,0.00,,,0.01,,2013-02-22 19:52:00,
2013-02-22 14:01:00,35.0,32.0,29.83,SW,234,13.0,20.0,88,0.00,,,0.01,,2013-02-22 20:01:00,
2013-02-22 14:11:00,35.0,32.0,29.83,SW,234,13.0,20.0,88,0.00,,,0.01,,2013-02-22 20:11:00,
2013-02-22 14:21:00,35.0,32.0,29.84,WSW,245,11.0,20.0,89,0.00,,,0.01,,2013-02-22 20:21:00,
2013-02-22 14:32:00,34.0,30.0,29.84,WSW,243,10.0,18.0,86,0.00,,,0.01,,2013-02-22 20:32:00,
2013-02-22 14:41:00,34.0,30.0,29.84,WSW,243,10.0,18.0,86,0.00,,,0.01,,2013-02-22 20:41:00,
2013-02-22 14:52:00,34.0,29.0,29.85,WSW,248,10.0,19.0,83,0.00,,,0.01,,2013-02-22 20:52:00,
2013-02-22 15:01:00,34.0,29.0,29.86,WSW,250,10.0,18.0,81,0.00,,,0.01,,2013-02-22 21:01:00,
2013-02-22 15:11:00,34.0,29.0,29.86,WSW,250,10.0,18.0,81,0.00,,,0.01,,2013-02-22 21:11:00,
2013-02-22 15:21:00,33.0,28.0,29.87,SW,234,13.0,18.0,82,0.00,,,0.01,,2013-02-22 21:21:00,
2013-02-22 15:32:00,32.0,28.0,29.87,WSW,253,13.0,19.0,84,0.00,,,0.01,,2013-02-22 21:32:00,
2013-02-22 15:42:00,32.0,28.0,29.87,WSW,253,13.0,19.0,84,0.00,,,0.01,,2013-02-22 21:42:00,
2013-02-22 15:52:00,32.0,28.0,29.88,West,265,11.0,19.0,84,0.00,,,0.01,,2013-02-22 21:52:00,
2013-02-22 16:01:00,31.0,27.0,29.88,WNW,286,12.0,19.0,84,0.00,,,0.01,,2013-02-22 22:01:00,
2013-02-22 16:11:00,31.0,27.0,29.88,WNW,286,12.0,19.0,84,0.00,,,0.01,,2013-02-22 22:11:00,
2013-02-22 16:21:00,31.0,26.0,29.88,West,273,13.0,20.0,83,0.00,,,0.01,,2013-02-22 22:21:00,
2013-02-22 16:31:00,31.0,26.0,29.88,WSW,242,9.0,20.0,81,0.00,,,0.01,,2013-02-22 22:31:00,
2013-02-22 16:41:00,31.0,26.0,29.88,WSW,242,9.0,20.0,81,0.00,,,0.01,,2013-02-22 22:41:00,
2013-02-22 16:51:00,31.0,26.0,29.89,WSW,239,9.0,16.0,81,0.00,,,0.01,,2013-02-22 22:51:00,
2013-02-22 17:01:00,31.0,26.0,29.90,WSW,245,11.0,18.0,81,0.00,,,0.01,,2013-02-22 23:01:00,
2013-02-22 17:11:00,31.0,26.0,29.90,WSW,245,11.0,18.0,81,0.00,,,0.01,,2013-02-22 23:11:00,
2013-02-22 17:21:00,31.0,26.0,29.90,West,261,9.0,17.0,82,0.00,,,0.01,,2013-02-22 23:21:00,
2013-02-22 17:31:00,31.0,26.0,29.90,WSW,254,6.0,13.0,83,0.00,,,0.01,,2013-02-22 23:31:00,
2013-02-22 17:41:00,31.0,26.0,29.90,WSW,254,6.0,13.0,83,0.00,,,0.01,,2013-02-22 23:41:00,
2013-02-22 17:52:00,31.0,26.0,29.91,WSW,242,8.0,13.0,82,0.00,,,0.01,,2013-02-22 23:52:00,
2013-02-22 18:01:00,30.0,26.0,29.91,West,277,7.0,15.0,84,0.00,,,0.01,,2013-02-23 00:01:00,
2013-02-22 18:11:00,30.0,26.0,29.91,West,277,7.0,15.0,84,0.00,,,0.01,,2013-02-23 00:11:00,
2013-02-22 18:21:00,30.0,26.0,29.92,West,277,7.0,13.0,84,0.00,,,0.01,,2013-02-23 00:21:00,
2013-02-22 18:32:00,30.0,25.0,29.92,SW,225,8.0,13.0,83,0.00,,,0.01,,2013-02-23 00:32:00,
2013-02-22 18:42:00,30.0,25.0,29.92,SW,225,8.0,13.0,83,0.00,,,0.01,,2013-02-23 00:42:00,
2013-02-22 18:51:00,30.0,26.0,29.92,WSW,238,7.0,13.0,84,0.00,,,0.01,,2013-02-23 00:51:00,
2013-02-22 19:01:00,30.0,25.0,29.93,WSW,252,9.0,16.0,83,0.00,,,0.01,,2013-02-23 01:01:00,
2013-02-22 19:11:00,30.0,25.0,29.93,WSW,252,9.0,16.0,83,0.00,,,0.01,,2013-02-23 01:11:00,
2013-02-22 19:21:00,30.0,26.0,29.93,WSW,248,7.0,15.0,84,0.00,,,0.01,,2013-02-23 01:21:00,
2013-02-22 19:31:00,30.0,26.0,29.93,WSW,254,7.0,16.0,84,0.00,,,0.01,,2013-02-23 01:31:00,
2013-02-22 19:42:00,30.0,26.0,29.93,WSW,254,7.0,16.0,84,0.00,,,0.01,,2013-02-23 01:42:00,
2013-02-22 19:51:00,29.0,25.0,29.94,West,277,8.0,16.0,85,0.00,,,0.01,,2013-02-23 01:51:00,
2013-02-22 20:01:00,29.0,25.0,29.94,WSW,255,8.0,16.0,85,0.00,,,0.01,,2013-02-23 02:01:00,
2013-02-22 20:11:00,29.0,25.0,29.94,West,269,9.0,17.0,84,0.00,,,0.01,,2013-02-23 02:11:00,
2013-02-22 20:21:00,29.0,25.0,29.94,West,269,9.0,17.0,84,0.00,,,0.01,,2013-02-23 02:21:00,
2013-02-22 20:31:00,29.0,25.0,29.94,SW,234,7.0,15.0,84,0.00,,,0.01,,2013-02-23 02:31:00,
2013-02-22 20:42:00,29.0,25.0,29.94,SW,234,7.0,15.0,84,0.00,,,0.01,,2013-02-23 02:42:00,
2013-02-22 20:52:00,29.0,25.0,29.95,WSW,258,6.0,15.0,85,0.00,,,0.01,,2013-02-23 02:52:00,
2013-02-22 21:01:00,29.0,25.0,29.94,WNW,285,8.0,14.0,85,0.00,,,0.01,,2013-02-23 03:01:00,
2013-02-22 21:11:00,29.0,25.0,29.94,WNW,285,8.0,14.0,85,0.00,,,0.01,,2013-02-23 03:11:00,
2013-02-22 21:21:00,29.0,25.0,29.95,WSW,250,9.0,16.0,85,0.00,,,0.01,,2013-02-23 03:21:00,
2013-02-22 21:32:00,29.0,25.0,29.95,West,267,6.0,12.0,86,0.00,,,0.01,,2013-02-23 03:32:00,
2013-02-22 21:41:00,29.0,25.0,29.95,West,267,6.0,12.0,86,0.00,,,0.01,,2013-02-23 03:41:00,
2013-02-22 21:51:00,29.0,25.0,29.95,West,267,6.0,12.0,86,0.00,,,0.01,,2013-02-23 03:51:00,
2013-02-22 22:01:00,28.0,24.0,29.95,WSW,251,7.0,16.0,85,0.00,,,0.01,,2013-02-23 04:01:00,
2013-02-22 22:11:00,28.0,24.0,29.95,SW,236,8.0,15.0,86,0.00,,,0.01,,2013-02-23 04:11:00,
2013-02-22 22:21:00,28.0,24.0,29.95,SW,236,8.0,15.0,86,0.00,,,0.01,,2013-02-23 04:21:00,
2013-02-22 22:31:00,28.0,24.0,29.95,WSW,251,7.0,11.0,86,0.00,,,0.01,,2013-02-23 04:31:00,
2013-02-22 22:41:00,28.0,24.0,29.95,WSW,251,7.0,11.0,86,0.00,,,0.01,,2013-02-23 04:41:00,
2013-02-22 22:51:00,28.0,24.0,29.95,WNW,285,8.0,14.0,86,0.00,,,0.01,,2013-02-23 04:51:00,
2013-02-22 23:02:00,28.0,24.0,29.95,WSW,257,6.0,12.0,86,0.00,,,0.01,,2013-02-23 05:02:00,
2013-02-22 23:12:00,28.0,24.0,29.95,WSW,257,6.0,12.0,86,0.00,,,0.01,,2013-02-23 05:12:00,
2013-02-22 23:22:00,28.0,24.0,29.95,West,267,7.0,13.0,86,0.00,,,0.01,,2013-02-23 05:22:00,
2013-02-22 23:32:00,28.0,24.0,29.95,West,263,6.0,14.0,86,0.00,,,0.01,,2013-02-23 05:32:00,
2013-02-22 23:41:00,28.0,24.0,29.95,West,263,6.0,14.0,86,0.00,,,0.01,,2013-02-23 05:41:00,
2013-02-22 23:52:00,28.0,24.0,29.95,WSW,253,6.0,11.0,86,0.00,,,0.01,,2013-02-23 05:52:00,